WB4FAY-4 Weather Reports


Display with metric or nautical units.
time (UTC)temp
F
wind
direction
speed
MPH
gust
MPH
rain 1hr
in
rain 24hr
in
rain mn
in
humidity
%
barometer
mb
20260505004517 73 202 3.0 5.0 0.00 0.00 0.00 45 1013.9
20260505004017 73 213 0.0 3.0 0.00 0.00 0.00 43 1013.9
20260505003517 74 0 0.0 0.0 0.00 0.00 0.00 43 1013.8
20260505003017 74 0 0.0 0.0 0.00 0.00 0.00 43 1013.8
20260505002517 74 0 0.0 0.0 0.00 0.00 0.00 42 1013.8
20260505002017 75 236 0.0 3.0 0.00 0.00 0.00 42 1013.7
20260505001517 75 199 3.0 4.0 0.00 0.00 0.00 41 1013.6
20260505001017 75 215 0.0 2.0 0.00 0.00 0.00 41 1013.6
20260505000517 75 192 0.0 4.0 0.00 0.00 0.00 41 1013.7
20260505000017 76 264 0.0 5.0 0.00 0.00 0.00 40 1013.7
20260504235517 76 196 0.0 2.0 0.00 0.00 0.00 40 1013.6
20260504235017 76 248 0.0 3.0 0.00 0.00 0.00 40 1013.7
20260504234516 76 270 0.0 5.0 0.00 0.00 0.00 40 1013.7
20260504234017 76 182 0.0 6.0 0.00 0.00 0.00 39 1013.7
20260504233517 77 202 0.0 5.0 0.00 0.00 0.00 39 1013.8
20260504233017 77 208 0.0 7.0 0.00 0.00 0.00 39 1013.8
20260504232517 77 0 0.0 0.0 0.00 0.00 0.00 39 1013.9
20260504232017 77 0 0.0 0.0 0.00 0.00 0.00 37 1013.9
20260504231518 77 0 0.0 0.0 0.00 0.00 0.00 37 1013.8
20260504231017 77 217 0.0 1.0 0.00 0.00 0.00 38 1013.9
20260504230517 77 192 0.0 6.0 0.00 0.00 0.00 38 1013.9
20260504230017 77 199 0.0 5.0 0.00 0.00 0.00 39 1014.0
20260504225517 78 309 0.0 7.0 0.00 0.00 0.00 36 1014.0
20260504225017 78 192 3.0 7.0 0.00 0.00 0.00 36 1014.0
20260504224517 78 198 0.0 6.0 0.00 0.00 0.00 36 1014.0
20260504224017 79 237 1.0 3.0 0.00 0.00 0.00 35 1014.0
20260504223517 79 196 0.0 8.0 0.00 0.00 0.00 35 1014.1
20260504223017 79 206 0.0 3.0 0.00 0.00 0.00 34 1014.1
20260504222517 79 220 0.0 5.0 0.00 0.00 0.00 34 1014.2
20260504222017 79 193 3.0 6.0 0.00 0.00 0.00 35 1014.2
20260504221517 79 210 4.0 5.0 0.00 0.00 0.00 36 1014.2
20260504221018 79 226 0.0 2.0 0.00 0.00 0.00 36 1014.2
20260504220517 80 199 1.0 2.0 0.00 0.00 0.00 35 1014.2
20260504220017 80 193 0.0 5.0 0.00 0.00 0.00 37 1014.2
20260504215517 80 176 2.0 5.0 0.00 0.00 0.00 36 1014.2
20260504215018 80 206 0.0 3.0 0.00 0.00 0.00 34 1014.3
20260504214517 80 0 0.0 0.0 0.00 0.00 0.00 38 1014.4
20260504214017 79 0 0.0 0.0 0.00 0.00 0.00 37 1014.4
20260504213517 79 205 0.0 7.0 0.00 0.00 0.00 36 1014.4
20260504213017 79 200 0.0 4.0 0.00 0.00 0.00 36 1014.5
20260504212517 79 189 0.0 4.0 0.00 0.00 0.00 36 1014.5
20260504212017 79 192 0.0 8.0 0.00 0.00 0.00 36 1014.6
20260504211517 79 182 5.0 7.0 0.00 0.00 0.00 35 1014.6
20260504211017 79 195 5.0 10.0 0.00 0.00 0.00 34 1014.5
20260504210517 80 261 2.0 4.0 0.00 0.00 0.00 33 1014.6
20260504210017 80 237 0.0 4.0 0.00 0.00 0.00 34 1014.5
20260504205517 80 234 0.0 6.0 0.00 0.00 0.00 37 1014.7
20260504205017 80 178 3.0 2.0 0.00 0.00 0.00 38 1014.7
20260504204518 79 233 0.0 8.0 0.00 0.00 0.00 36 1014.7
20260504204017 80 263 5.0 7.0 0.00 0.00 0.00 34 1014.7
20260504203518 80 318 1.0 7.0 0.00 0.00 0.00 36 1014.7
20260504203017 80 195 0.0 9.0 0.00 0.00 0.00 34 1014.8
20260504202517 80 234 0.0 5.0 0.00 0.00 0.00 36 1014.8
20260504202018 80 167 0.0 4.0 0.00 0.00 0.00 35 1014.8
20260504201517 79 313 0.0 11.0 0.00 0.00 0.00 38 1014.8
20260504201017 79 198 0.0 5.0 0.00 0.00 0.00 36 1014.9
20260504200517 79 257 4.0 3.0 0.00 0.00 0.00 38 1015.0
20260504200017 78 0 0.0 0.0 0.00 0.00 0.00 39 1015.1
20260504195517 78 229 0.0 6.0 0.00 0.00 0.00 39 1015.2
20260504195017 78 83 2.0 4.0 0.00 0.00 0.00 36 1015.2
20260504194518 78 248 0.0 3.0 0.00 0.00 0.00 40 1015.3
20260504194017 78 256 0.0 4.0 0.00 0.00 0.00 39 1015.3
20260504193517 77 184 3.0 5.0 0.00 0.00 0.00 39 1015.4
20260504193017 77 247 0.0 3.0 0.00 0.00 0.00 40 1015.5
20260504192517 77 244 0.0 4.0 0.00 0.00 0.00 40 1015.5
20260504192017 77 258 0.0 6.0 0.00 0.00 0.00 39 1015.7
20260504191518 77 51 1.0 5.0 0.00 0.00 0.00 41 1015.7
20260504191017 77 48 3.0 5.0 0.00 0.00 0.00 43 1015.7
20260504190517 77 0 0.0 0.0 0.00 0.00 0.00 43 1015.8
20260504190017 77 78 0.0 3.0 0.00 0.00 0.00 43 1015.8
20260504185517 76 85 2.0 3.0 0.00 0.00 0.00 40 1015.9
20260504185017 77 0 0.0 0.0 0.00 0.00 0.00 41 1016.0
20260504184517 76 213 0.0 6.0 0.00 0.00 0.00 40 1016.2
20260504184017 77 196 0.0 5.0 0.00 0.00 0.00 39 1016.2
20260504183517 77 179 4.0 9.0 0.00 0.00 0.00 39 1016.2
20260504183017 77 215 0.0 2.0 0.00 0.00 0.00 41 1016.3
20260504182517 76 186 0.0 3.0 0.00 0.00 0.00 41 1016.4
20260504182017 76 83 1.0 7.0 0.00 0.00 0.00 42 1016.5
20260504181517 76 244 2.0 6.0 0.00 0.00 0.00 42 1016.6
20260504181017 76 247 0.0 5.0 0.00 0.00 0.00 42 1016.5
20260504180517 76 17 4.0 3.0 0.00 0.00 0.00 44 1016.5
20260504180017 76 172 0.0 6.0 0.00 0.00 0.00 42 1016.8
20260504175517 76 191 5.0 6.0 0.00 0.00 0.00 41 1016.9
20260504175017 77 257 0.0 3.0 0.00 0.00 0.00 46 1016.9
20260504174517 77 206 0.0 5.0 0.00 0.00 0.00 43 1016.9
20260504174017 77 164 0.0 4.0 0.00 0.00 0.00 43 1016.9
20260504173517 76 157 4.0 4.0 0.00 0.00 0.00 43 1017.0
20260504173017 76 222 2.0 5.0 0.00 0.00 0.00 43 1017.1
20260504172517 76 134 0.0 4.0 0.00 0.00 0.00 44 1017.1
20260504172018 75 134 2.0 7.0 0.00 0.00 0.00 44 1017.2
20260504171517 75 0 0.0 0.0 0.00 0.00 0.00 45 1017.3
20260504171017 74 189 0.0 3.0 0.00 0.00 0.00 45 1017.5
20260504170518 74 240 0.0 3.0 0.00 0.00 0.00 45 1017.6
20260504151017 68 232 0.0 3.0 0.00 0.00 0.00 57 1018.5
20260504150518 67 237 2.0 3.0 0.00 0.00 0.00 57 1018.5
20260504141017 63 179 1.0 6.0 0.00 0.00 0.00 64 1019.0
20260504140517 62 199 0.0 3.0 0.00 0.00 0.00 64 1019.1
20260504130517 55 0 0.0 0.0 0.00 0.00 0.00 88 1019.2
20260504110517 50 0 0.0 0.0 0.00 0.00 0.00 91 1018.4
20260504100517 50 0 0.0 0.0 0.00 0.00 0.00 91 1018.4
20260504081517 51 0 0.0 0.0 0.00 0.00 0.00 88 1018.1
20260504081017 51 0 0.0 0.0 0.00 0.00 0.00 88 1018.2
20260504080517 51 0 0.0 0.0 0.00 0.00 0.00 88 1018.3
20260504050517 53 0 0.0 0.0 0.00 0.00 0.00 80 1019.3
20260504050017 53 0 0.0 0.0 0.00 0.00 0.00 80 1019.3
20260504045517 53 0 0.0 0.0 0.00 0.00 0.00 80 1019.3
20260504045017 53 0 0.0 0.0 0.00 0.00 0.00 80 1019.3
20260504044517 54 0 0.0 0.0 0.00 0.00 0.00 80 1019.3
20260504044017 54 0 0.0 0.0 0.00 0.00 0.00 79 1019.4
20260504043517 54 0 0.0 0.0 0.00 0.00 0.00 79 1019.4
20260504043017 54 0 0.0 0.0 0.00 0.00 0.00 79 1019.4
20260504042517 54 0 0.0 0.0 0.00 0.00 0.00 78 1019.5
20260504042017 55 0 0.0 0.0 0.00 0.00 0.00 77 1019.5
20260504041517 55 0 0.0 0.0 0.00 0.00 0.00 77 1019.6
20260504041017 55 0 0.0 0.0 0.00 0.00 0.00 77 1019.5
20260504040517 55 0 0.0 0.0 0.00 0.00 0.00 77 1019.5
20260504040017 55 0 0.0 0.0 0.00 0.00 0.00 76 1019.6
20260504035518 55 0 0.0 0.0 0.00 0.00 0.00 77 1019.6
20260504035017 55 0 0.0 0.0 0.00 0.00 0.00 76 1019.7
20260504034517 55 0 0.0 0.0 0.00 0.00 0.00 76 1019.7
20260504034017 56 0 0.0 0.0 0.00 0.00 0.00 76 1019.7
20260504033517 56 0 0.0 0.0 0.00 0.00 0.00 76 1019.7
20260504033017 56 0 0.0 0.0 0.00 0.00 0.00 76 1019.8
20260504032517 56 0 0.0 0.0 0.00 0.00 0.00 76 1019.8
20260504032017 56 0 0.0 0.0 0.00 0.00 0.00 75 1019.8
20260504031517 56 0 0.0 0.0 0.00 0.00 0.00 75 1019.8
20260504031017 56 0 0.0 0.0 0.00 0.00 0.00 75 1019.8
20260504030517 56 0 0.0 0.0 0.00 0.00 0.00 74 1019.8
20260504030017 57 0 0.0 0.0 0.00 0.00 0.00 74 1019.8
20260504025517 57 0 0.0 0.0 0.00 0.00 0.00 74 1019.7
20260504025017 57 0 0.0 0.0 0.00 0.00 0.00 73 1019.6
20260504024517 57 0 0.0 0.0 0.00 0.00 0.00 73 1019.6
20260504024017 57 0 0.0 0.0 0.00 0.00 0.00 73 1019.5
20260504023517 57 0 0.0 0.0 0.00 0.00 0.00 72 1019.4
20260504023017 58 0 0.0 0.0 0.00 0.00 0.00 72 1019.4
20260504022517 58 0 0.0 0.0 0.00 0.00 0.00 71 1019.3
20260504022017 58 0 0.0 0.0 0.00 0.00 0.00 70 1019.3
20260504021516 58 0 0.0 0.0 0.00 0.00 0.00 70 1019.2
20260504021017 58 0 0.0 0.0 0.00 0.00 0.00 69 1019.2
20260504020517 59 0 0.0 0.0 0.00 0.00 0.00 68 1019.2
20260504020017 59 0 0.0 0.0 0.00 0.00 0.00 68 1019.2
20260504015517 59 0 0.0 0.0 0.00 0.00 0.00 67 1019.1
20260504015017 59 0 0.0 0.0 0.00 0.00 0.00 67 1019.1
20260504014517 59 0 0.0 0.0 0.00 0.00 0.00 66 1019.1
20260504014017 59 0 0.0 0.0 0.00 0.00 0.00 66 1019.2
20260504013522 60 0 0.0 0.0 0.00 0.00 0.00 64 1019.0
20260504013018 61 0 0.0 0.0 0.00 0.00 0.00 63 1018.9
20260504012517 61 0 0.0 0.0 0.00 0.00 0.00 62 1018.8
20260504012017 61 0 0.0 0.0 0.00 0.00 0.00 63 1018.7
20260504011517 61 0 0.0 0.0 0.00 0.00 0.00 61 1018.8
20260504011017 62 0 0.0 0.0 0.00 0.00 0.00 60 1018.8
20260504010517 62 0 0.0 0.0 0.00 0.00 0.00 60 1018.8
20260504010017 62 0 0.0 0.0 0.00 0.00 0.00 57 1018.6
20260504005517 63 0 0.0 0.0 0.00 0.00 0.00 57 1018.6
20260504005017 63 0 0.0 0.0 0.00 0.00 0.00 56 1018.5